{"data":{"norad_id":58459,"epoch":"2026-09-20T19:44:43.681056Z","epoch_age_seconds":118838,"freshness":"FRESH","line1":"1 58459U 23183Y   26263.82272779 -.00000988  00000+0 -26371-4 0  9990","line2":"2 58459  43.0035  19.9242 0001325 283.2310  76.8394 15.27577911156571","mean_motion":15.27577911,"eccentricity":0.0001325,"inclination_deg":43.0035,"raan_deg":19.9242,"arg_perigee_deg":283.231,"mean_anomaly_deg":76.8394,"bstar":-2.6371e-5,"rev_number":15657,"period_min":94.266877625727,"perigee_km":482.14624327775,"apogee_km":483.96445925084,"semimajor_km":6861.1923512643,"source":"CELESTRAK","updated_at":"2026-09-21T09:00:33.879915Z"}}